EQUISat
1 43552U 98067PA 20282.61417898 .00060873 00000-0 28423-3 0 9993
2 43552 051.6298 064.3498 0002686 216.7635 143.3183 15.82688220128071
UiTMSat 1
1 43589U 98067PD 20282.57132101 .00113494 15854-4 36999-3 0 9991
2 43589 051.6311 058.5733 0003826 280.2036 079.8539 15.90533875123888
Maya 1
1 43590U 98067PE 20282.62584952 .00118395 16273-4 38433-3 0 9990
2 43590 51.6257 58.1205 0003633 280.8836 79.1761 15.90594068123824
Bhutan 1
1 43591U 98067PF 20282.64444142 .00122586 16679-4 38885-3 0 9997
2 43591 51.6320 57.6495 0003903 280.3538 79.7028 15.91023784123831
SiriusSat 1
1 43595U 98067PG 20281.83379568 .00053679 00000-0 23108-3 0 9995
2 43595 51.6332 70.1725 0000978 234.7676 125.8023 15.84464279122779
SiriusSat 2
1 43596U 98067PH 20282.28146205 .00101583 00000-0 43069-3 0 9992
2 43596 51.6267 68.7322 0001273 256.8890 103.3957 15.84532602122835
SurfSat
1 43614U 18070B 20282.51241834 .00003260 00000-0 82413-4 0 9999
2 43614 093.0284 201.3918 0012013 258.0537 101.9371 15.39782138115878
CP-7 DAVE
1 43615U 18070C 20282.55553494 .00003048 00000-0 77524-4 0 9993
2 43615 093.0286 201.3927 0012183 257.4771 102.5121 15.39604229115876
ELFIN-B
1 43616U 18070D 20282.55350249 .00004165 00000-0 10035-3 0 9991
2 43616 093.0245 201.3760 0012362 258.5832 101.4035 15.41220689115932
ELFIN-A
1 43617U 18070E 20282.50642950 .00005142 00000-0 12285-3 0 9995
2 43617 93.0300 201.9648 0011799 254.2536 105.7418 15.41474293115937
STARS-Me Mother
1 43640U 98067PQ 20282.04011401 .00022747 00000-0 19796-3 0 9999
2 43640 051.6334 095.9148 0003424 110.4084 249.7281 15.68936271114386
CubeBel 1
1 43666U 18083E 20282.78690194 .00001208 00000-0 61812-4 0 9996
2 43666 97.4815 308.1037 0014318 332.4058 115.1735 15.18470219107813
Changshagaoxin
1 43669U 18083H 20282.78908404 .00001004 00000-0 53487-4 0 9998
2 43669 97.4705 305.9529 0009958 328.4245 118.7362 15.17456253107717
Ten-Koh
1 43677U 18084G 20282.42166170 .00000220 00000-0 28450-4 0 9996
2 43677 097.8948 039.2904 0016907 142.1291 218.1119 14.90325233105768
PO-101
1 43678U 18084H 20282.84182413 .00000503 00000-0 55769-4 0 9998
2 43678 97.8965 41.3225 0010423 154.6770 205.4959 14.91660691105925
IRVINE 01
1 43693U 18088D 20282.49591987 .00003142 00000-0 13015-3 0 9999
2 43693 085.0382 002.1618 0015902 229.4648 130.5211 15.23373720106051
QO-100
1 43700U 18090A 20282.61820740 .00000146 00000-0 00000 0 0 9994
2 43700 0.0117 249.6008 0001936 334.7256 41.7590 1.00270855 7082
Reaktor Hello World
1 43743U 18096AA 20282.69109099 .00001479 00000-0 57171-4 0 9998
2 43743 97.4123 355.9554 0019434 88.2732 272.0733 15.27672832103681
MinXSS-2
1 43758U 18099A 20282.25827476 .00000185 00000-0 21768-4 0 9991
2 43758 097.6968 352.3080 0015964 167.7288 192.4325 14.95744895100811
AO-95
1 43770U 18099N 20282.15210503 .00000696 00000-0 68629-4 0 9995
2 43770 97.6962 351.5152 0014754 174.8775 185.2600 14.95058653100755
RANGE-B
1 43772U 18099Q 20282.29124646 .00000763 00000-0 74372-4 0 9991
2 43772 097.7036 352.2941 0014702 161.7848 198.3902 14.95271336100770
RANGE-A
1 43773U 18099R 20282.74741301 .00000641 00000-0 63702-4 0 9995
2 43773 97.6902 351.6512 0014144 160.0665 200.1111 14.95019300100830
MOVE-II
1 43780U 18099Y 20282.26956772 .00000771 00000-0 74694-4 0 9996
2 43780 097.6967 351.9212 0013897 171.9403 188.2044 14.95504865100773
SNUSat 2
1 43782U 18099AA 20282.42800005 .00000371 00000-0 38821-4 0 9991
2 43782 097.6962 352.0382 0013250 159.9577 200.2167 14.95321556100800
SnugLite
1 43784U 18099AC 20282.25492089 .00000068 00000-0 11290-4 0 9997
2 43784 097.6922 351.6631 0015402 169.8131 190.3405 14.95422825100790
ITASat 1
1 43786U 18099AE 20282.25765280 .00000065 00000-0 11035-4 0 9999
2 43786 097.6975 352.1191 0015522 169.0375 191.1187 14.95385538100797
EAGLET 1
1 43790U 18099AJ 20282.42171798 .00000699 00000-0 67712-4 0 9994
2 43790 097.6969 352.5847 0013783 171.0976 189.0492 14.95769433100531
ESEO
1 43792U 18099AL 20282.24060652 -.00000305 00000-0 -22245-4 0 9990
2 43792 097.6940 352.1718 0013466 169.0955 191.0560 14.95629938100564
CSIM
1 43793U 18099AM 20282.24843703 .00000082 00000-0 12347-4 0 9999
2 43793 097.6943 352.2436 0013426 166.7010 193.4567 14.96159995100552
Astrocast 0.1
1 43798U 18099AS 20282.19867400 .00000200 00000-0 22936-4 0 9995
2 43798 97.6962 352.4883 0013218 152.9221 207.2693 14.95915341100802
JO-97
1 43803U 18099AX 20282.45911572 .00000207 00000-0 23802-4 0 9991
2 43803 097.6936 352.1102 0015528 168.5994 191.5582 14.95575785100825
Suomi 100
1 43804U 18099AY 20282.46090920 .00000253 00000-0 27958-4 0 9995
2 43804 097.6933 352.0953 0015591 168.6525 191.5050 14.95561067100836
Al Farabi 2
1 43805U 18099AZ 20282.75996197 .00000971 00000-0 92182-4 0 9997
2 43805 97.6955 352.5084 0015712 166.7036 193.4602 14.95704677100887
PWSat 2
1 43814U 18099BJ 20282.47334876 .00040842 00000-0 19567-2 0 9991
2 43814 097.7929 005.9948 0010108 167.8250 192.3230 15.18764142100830
CHOMPTT
1 43855U 18104G 20282.50919417 .00001023 00000-0 41445-4 0 9997
2 43855 085.0334 100.3997 0017480 003.1804 356.9546 15.23154002100737
ISAT
1 43879U 18111D 20282.78268969 .00000768 00000-0 72920-4 0 9997
2 43879 97.6930 188.3360 0011493 221.2082 138.8259 14.96327006 95414
UWE-4
1 43880U 18111E 20282.41013044 .00000427 00000-0 42613-4 0 9999
2 43880 097.6935 188.3020 0011267 223.2341 136.7997 14.96562392097386
Sparrow
1 43881U 18111F 20282.52294351 -.00000145 00000-0 -76731-5 0 9992
2 43881 097.6947 188.5018 0011303 221.4703 138.5661 14.96609740097402
Lume 1
1 43908U 18111AJ 20282.68534779 .00001207 00000-0 50480-4 0 9990
2 43908 97.2523 179.2185 0022849 101.6778 258.7026 15.25256615 99288
FO-98
1 43933U 19003B 20282.39269262 .00000779 00000-0 36663-4 0 9999
2 43933 97.2178 327.7377 0017205 198.6731 161.3877 15.22265893 95712
FO-99
1 43937U 19003F 20282.38853503 .00001406 00000-0 59337-4 0 9990
2 43937 97.2141 329.3040 0023838 181.1500 178.9687 15.24645010 95843
Delphini 1
1 44030U 98067PW 20282.75528330 .00032503 00000-0 25522-3 0 9990
2 44030 51.6320 97.6783 0003421 172.6597 187.4452 15.71209749 96299
MYSat 1
1 44045U 18092F 20282.52506937 .00002831 00000-0 86832-4 0 9993
2 44045 051.6384 213.0491 0011344 017.3054 342.8314 15.37268782092677
AstroCast 0.2
1 44083U 19018F 20282.72415467 .00000862 00000-0 40997-4 0 9997
2 44083 97.4092 342.1380 0014421 130.8581 229.3907 15.21764333 84606
AISTechSat 3
1 44103U 19018AB 20282.76187771 .00001004 00000-0 45130-4 0 9991
2 44103 97.3965 342.4173 0014190 142.8481 357.8539 15.23341421 84682
AISat 1
1 44104U 19018AC 20282.16589536 .00001219 00000-0 41013-4 0 9995
2 44104 097.4539 352.4977 0058119 170.9871 189.2428 15.31246836085057
Raavana-1
1 44329U 98067QE 20281.82504198 .00014959 00000-0 18522-3 0 9991
2 44329 051.6376 129.9474 0005419 073.0370 287.1216 15.60300363074530
Uguisu
1 44330U 98067QF 20282.29296268 .00013693 00000-0 17077-3 0 9999
2 44330 51.6356 127.7907 0005363 74.4232 285.7353 15.60197008 74588
NepaliSat-1
1 44331U 98067QG 20282.00848870 .00015516 00000-0 19176-3 0 9999
2 44331 051.6354 128.8933 0005390 076.5659 283.5935 15.60315747074555
Prox-1
1 44339U 19036A 20282.24037342 .00001005 00000-0 18810-3 0 9998
2 44339 023.9994 122.1256 0011175 302.7777 057.1637 14.53146074068556
Oculus-ASR
1 44348U 19036K 20282.51216399 .00008370 00000-0 11993-3 0 9996
2 44348 028.5154 000.7695 0360070 075.5684 288.4581 15.04459251070838
